Location: Omaha
(41.2590°N, 95.9380°W)
Time: 13:56:28
(UTC-05:00)

Tiangong 1 - Pass Details

Date: 12 October 2017
Orbit: 292 x 319 km, 42.8° (Epoch: 23 October)

Event Time Altitude Azimuth Distance (km) Brightness Sun altitude
Rises 20:13:24 0° 283° (WNW) 2,042 6.4 -17.0°
Reaches altitude 10° 20:15:24 10° 283° (WNW) 1,206 4.9 -17.4°
Enters shadow 20:17:58 78° 256° (WSW) 320 0.6 -17.9°
